LANDSAT 9

Last updated on Thu Oct 30 2025 00:02:32 GMT+0000 (Coordinated Universal Time)

1 49260U 21088A 25302.46753064 .00000623 00000+0 14824-3 0 9999 2 49260 98.2142 11.2085 0001202 88.4494 271.6842 14.57130794217403
UTC large
Height (km)
Speed (km/s)
/
Latitude / Longitude
Inclination (degrees)
Orbital Period (minutes)
Azimuth
Elevation
Range (km)
Doppler Factor

Next 0 passes for location: London (51.5072 / 0.1276)

Sorry there are no passes over London.